User: anonymous   Login
Location: Unspecified
(0.0000°N, 0.0000°E)
Time: 12:36:53
(UTC+00:00)
Language:

GALEX - Orbit

View from above orbital plane
View from above orbital plane
View from above satellite
View from above satellite

Ground track
Ground track

The orbit data is extracted from the following two-line orbital elements,

1 27783U 03017A   18201.21275527  .00000173  00000-0  12926-4 0  9996
2 27783  28.9967 174.9090 0003670  10.9621 349.1046 14.62104525813723
Epoch (UTC): 20 July 2018 05:06:22
Eccentricity: 0.0003670
inclination: 28.9967°
perigee height: 684 km
apogee height: 689 km
right ascension of ascending node: 174.9090°
argument of perigee: 10.9621°
revolutions per day: 14.62104525
mean anomaly at epoch: 349.1046°
orbit number at epoch: 81372

The dashed part of the orbit path shows where the satellite is in the earth's shadow,  

DLR